Location: ????????
(55.5667°N, 37.5833°E)
Time: 06:48:34
(UTC+00:00)

ALOS 2 - Pass Details

Date: 14 April 2026
Orbit: 630 x 632 km, 97.9° (Epoch: 12 May)

Event Time Altitude Azimuth Distance (km) Brightness Sun altitude
Exits shadow 21:53:49 24° 276° (W) 1,333 4.2 -24.6°
Drops below altitude 10° 21:57:03 10° 323° (NW) 2,028 5.8 -24.5°
Sets 21:59:38 0° 337° (NNW) 2,941 7.0 -24.5°
